Weather History for McCall, ID

Change the Weather History Date:

Friday, April 19, 2013

  Actual Average Record
Temperature  
Mean Temperature 37 °F 38 °F  
Max Temperature 42 °F 50 °F 79 °F (1994)
Min Temperature 32 °F 26 °F 12 °F (1982)
Degree Days  
Heating Degree Days 28 27  
Month to date heating degree days 534 567  
Since 1 July heating degree days 7626 8356  
Cooling Degree Days 0 0  
Month to date cooling degree days 0 0  
Year to date cooling degree days 0 0  
Moisture  
Dew Point 33 °F    
Average Humidity 76    
Maximum Humidity 92    
Minimum Humidity 59    
Precipitation  
Precipitation 0.58 in 0.06 in 0.58 in (2013)
Month to date precipitation 1.88 1.24  
Year to date precipitation 7.58 6.91  
Sea Level Pressure  
Sea Level Pressure 30.07 in    
Wind  
Wind Speed 2 mph (NW)    
Max Wind Speed 13 mph    
Max Gust Speed 32 mph    
Visibility 5 miles    
Events Fog , Rain , Snow    
T = Trace of Precipitation, MM = Missing Value Source: NWS Daily Summary

Daily Weather History Graph

Daily Weather History Graph

Search for Another Location

Airport:

Trip Planner

Search our weather history database for the weather conditions in past years. The results will help you decide how hot, cold, wet, or windy it might be!

Date:

Astronomy

Apr. 19, 2013 Rise Set
Actual Time 6:52 AM MDT 8:35 PM MDT
Civil Twilight 6:21 AM MDT 9:06 PM MDT
Nautical Twilight 5:43 AM MDT 9:44 PM MDT
Astronomical Twilight 5:03 AM MDT 10:25 PM MDT
Moon 2:08 PM MDT (4/19) 3:26 AM MDT (4/19)
Length of Visible Light 14h 44m
Length of Day
13h 42m
Waxing Gibbous, 62% of the Moon is Illuminated
Apr 19
Waxing Gibbous
Apr 25
Full
May 2
Last Quarter
May 9
New
May 17
First Quarter

Hourly Weather History & Observations

Time (MDT) Temp. Windchill Dew Point Humidity Pressure Visibility Wind Dir Wind Speed Gust Speed Precip Events Conditions
12:51 AM 37.9 °F - 26.1 °F 62% 30.23 in 10.0 mi Calm Calm - N/A   Overcast
1:51 AM 37.0 °F 34.5 °F 25.0 °F 62% 30.22 in 10.0 mi NW 3.5 mph - N/A   Overcast
2:51 AM 37.0 °F - 25.0 °F 62% 30.20 in 10.0 mi Calm Calm - N/A   Overcast
3:51 AM 37.0 °F - 26.1 °F 65% 30.17 in 10.0 mi Calm Calm - N/A   Overcast
4:51 AM 37.0 °F - 25.0 °F 62% 30.15 in 10.0 mi Calm Calm - N/A   Overcast
5:14 AM 35.6 °F - 26.6 °F 70% 30.14 in 10.0 mi Calm Calm - N/A   Overcast
5:51 AM 35.1 °F - 27.0 °F 72% 30.15 in 5.0 mi Calm Calm - 0.00 in Snow Light Snow
6:04 AM 35.6 °F - 28.4 °F 75% 30.14 in 2.0 mi Calm Calm - 0.00 in Snow Light Snow
6:10 AM 33.8 °F - 28.4 °F 81% 30.14 in 1.5 mi Calm Calm - 0.01 in Snow Light Snow
6:25 AM 32.0 °F - 30.2 °F 93% 30.14 in 1.0 mi Calm Calm - 0.02 in Snow Light Snow
6:33 AM 32.0 °F - 30.2 °F 93% 30.14 in 1.0 mi Calm Calm - 0.03 in Snow Light Snow
6:51 AM 33.1 °F - 30.9 °F 92% 30.15 in 1.2 mi Calm Calm - 0.05 in Snow Light Snow
7:03 AM 32.0 °F - 30.2 °F 93% 30.13 in 0.8 mi Calm Calm - 0.01 in Snow Light Snow
7:24 AM 32.0 °F - 30.2 °F 93% 30.13 in 1.0 mi Calm Calm - 0.03 in Snow Light Snow
7:51 AM 33.1 °F - 30.9 °F 92% 30.15 in 1.0 mi Calm Calm - 0.05 in Snow Light Snow
8:13 AM 33.8 °F - 30.2 °F 87% 30.12 in 1.2 mi Calm Calm - 0.02 in Snow Light Snow
8:51 AM 33.1 °F - 30.9 °F 92% 30.14 in 1.0 mi Calm Calm - 0.04 in Snow Light Snow
8:59 AM 33.8 °F - 30.2 °F 87% 30.11 in 1.2 mi Calm Calm - 0.01 in Snow Light Snow
9:32 AM 33.8 °F - 30.2 °F 87% 30.10 in 2.0 mi Calm Calm - 0.02 in Snow Light Snow
9:51 AM 33.1 °F - 30.9 °F 92% 30.13 in 2.0 mi Calm Calm - 0.03 in Snow Light Snow
10:34 AM 33.8 °F - 32.0 °F 93% 30.07 in 3.0 mi Calm Calm - 0.03 in Snow Light Snow
10:51 AM 34.0 °F 31.0 °F 32.0 °F 92% 30.11 in 10.0 mi NW 3.5 mph - 0.03 in   Overcast
11:51 AM 35.1 °F 32.2 °F 32.0 °F 89% 30.10 in 9.0 mi NW 3.5 mph - 0.00 in Rain Light Rain
11:57 AM 35.6 °F 31.7 °F 32.0 °F 87% 30.06 in 6.0 mi NW 4.6 mph - 0.00 in Rain Light Rain
12:16 PM 35.6 °F 31.7 °F 33.8 °F 93% 30.06 in 5.0 mi NW 4.6 mph - 0.01 in Rain Light Rain
12:33 PM 35.6 °F - 33.8 °F 93% 30.05 in 5.0 mi Calm Calm - 0.02 in Rain Light Rain
12:51 PM 37.0 °F 33.3 °F 35.1 °F 93% 30.08 in 4.0 mi NNW 4.6 mph - 0.04 in Rain Light Rain
12:57 PM 37.4 °F 34.9 °F 35.6 °F 93% 30.04 in 5.0 mi NNW 3.5 mph - 0.00 in Rain Light Rain
1:26 PM 37.4 °F 33.8 °F 35.6 °F 93% 30.03 in 4.0 mi NNW 4.6 mph - 0.01 in Rain Light Rain
1:51 PM 39.9 °F - 37.0 °F 89% 30.05 in 5.0 mi Calm Calm - 0.03 in Rain Light Rain
2:33 PM 41.0 °F 36.4 °F 37.4 °F 87% 30.01 in 5.0 mi South 6.9 mph - 0.03 in Rain Light Rain
2:51 PM 41.0 °F 35.8 °F 36.0 °F 82% 30.03 in 8.0 mi SSE 8.1 mph - 0.03 in Rain Light Rain
3:51 PM 41.0 °F 35.2 °F 37.0 °F 86% 30.01 in 5.0 mi South 9.2 mph - 0.03 in Rain Light Rain
4:14 PM 42.8 °F 41.1 °F 37.4 °F 81% 29.99 in 10.0 mi Variable 3.5 mph - 0.01 in Rain Light Rain
4:22 PM 42.8 °F 39.3 °F 37.4 °F 81% 29.99 in 10.0 mi SSW 5.8 mph - 0.01 in Rain Light Rain
4:51 PM 42.1 °F 37.7 °F 37.0 °F 82% 30.00 in 10.0 mi SSW 6.9 mph - 0.02 in Rain Light Rain
5:51 PM 42.1 °F 40.2 °F 37.0 °F 82% 30.00 in 10.0 mi SE 3.5 mph - 0.01 in Rain Light Rain
6:19 PM 39.2 °F 35.9 °F 37.4 °F 93% 29.98 in 4.0 mi NNW 4.6 mph - 0.03 in Rain Light Rain
6:51 PM 39.9 °F - 37.0 °F 89% 30.02 in 5.0 mi Calm Calm - 0.09 in Rain Light Rain
6:59 PM 39.2 °F 37.0 °F 37.4 °F 93% 29.98 in 6.0 mi NNE 3.5 mph - 0.01 in Rain Light Rain
7:51 PM 39.0 °F - 36.0 °F 89% 30.02 in 6.0 mi Calm Calm - 0.07 in Rain Rain
8:49 PM 39.2 °F - 35.6 °F 87% 29.99 in 10.0 mi Calm Calm - 0.06 in Rain Light Rain
8:51 PM 39.0 °F - 36.0 °F 89% 30.03 in 10.0 mi Calm Calm - 0.06 in Rain Light Rain
9:38 PM 37.4 °F - 35.6 °F 93% 30.00 in 10.0 mi Calm Calm - 0.00 in   Overcast
9:45 PM 37.4 °F - 35.6 °F 93% 30.00 in 10.0 mi Calm Calm - 0.00 in   Overcast
9:51 PM 37.0 °F - 35.1 °F 93% 30.05 in 10.0 mi Calm Calm - 0.00 in   Overcast
10:21 PM 37.4 °F 33.8 °F 35.6 °F 93% 30.01 in 2.0 mi NW 4.6 mph - N/A   Overcast
10:23 PM 35.6 °F 32.8 °F 35.6 °F 100% 30.01 in 1.2 mi NNW 3.5 mph - N/A   Overcast
10:25 PM 35.6 °F 32.8 °F 35.6 °F 100% 30.01 in 1.0 mi NNW 3.5 mph - N/A   Overcast
10:31 PM 35.6 °F 32.8 °F 35.6 °F 100% 30.01 in 0.5 mi NW 3.5 mph - N/A Fog Fog
10:39 PM 37.4 °F - 35.6 °F 93% 30.01 in 0.8 mi Calm Calm - N/A   Overcast
10:49 PM 37.4 °F - 35.6 °F 93% 30.02 in 1.0 mi Calm Calm - N/A   Mist
10:51 PM 37.0 °F - 36.0 °F 96% 30.06 in 1.0 mi Calm Calm - N/A   Overcast
10:59 PM 37.4 °F - 35.6 °F 93% 30.02 in 1.8 mi Calm Calm - N/A   Overcast
11:27 PM 35.6 °F - 35.6 °F 100% 30.02 in 1.0 mi Calm Calm - N/A   Overcast
11:34 PM 37.4 °F - 35.6 °F 93% 30.02 in 0.8 mi Calm Calm - N/A   Overcast
11:43 PM 37.4 °F - 35.6 °F 93% 30.02 in 1.2 mi Calm Calm - N/A   Overcast
11:51 PM 37.0 °F - 35.1 °F 93% 30.06 in 4.0 mi Calm Calm - N/A   Overcast